AB4PS Weather Reports


Display with metric or nautical units.
time (UTC)temp
F
wind
direction
speed
MPH
gust
MPH
rain 1hr
in
rain 24hr
in
rain mn
in
humidity
%
barometer
mb
20260509000503 66 120 0.0 0.0 0.00 0.00 0.00 51 1015.0
20260508235957 67 120 0.0 0.0 0.00 0.00 0.00 52 1015.0
20260508235456 67 120 0.0 0.0 0.00 0.00 0.00 51 1014.8
20260508234952 67 120 2.0 2.0 0.00 0.00 0.00 48 1014.9
20260508234449 68 120 0.0 0.0 0.00 0.00 0.00 48 1014.9
20260508233947 68 120 0.0 0.0 0.00 0.00 0.00 49 1014.9
20260508233446 68 120 0.0 0.0 0.00 0.00 0.00 48 1014.9
20260508232942 68 120 1.0 1.0 0.00 0.00 0.00 46 1014.9
20260508232439 68 125 0.0 0.0 0.00 0.00 0.00 46 1014.7
20260508231936 68 126 1.0 2.0 0.00 0.00 0.00 45 1015.0
20260508231434 69 130 0.0 0.0 0.00 0.00 0.00 47 1015.0
20260508230930 69 131 1.0 1.0 0.00 0.00 0.00 45 1014.8
20260508230427 69 97 2.0 2.0 0.00 0.00 0.00 45 1015.0
20260508225924 69 95 0.0 0.0 0.00 0.00 0.00 46 1014.9
20260508225421 69 139 2.0 2.0 0.00 0.00 0.00 44 1014.9
20260508224918 70 133 1.0 1.0 0.00 0.00 0.00 44 1015.1
20260508224416 70 100 0.0 0.0 0.00 0.00 0.00 45 1014.9
20260508223913 70 111 0.0 0.0 0.00 0.00 0.00 45 1014.7
20260508223411 70 121 4.0 6.0 0.00 0.00 0.00 41 1014.9
20260508222908 71 126 0.0 0.0 0.00 0.00 0.00 44 1014.9
20260508222405 71 136 2.0 2.0 0.00 0.00 0.00 42 1014.9
20260508221901 71 139 1.0 1.0 0.00 0.00 0.00 43 1014.9
20260508221357 71 140 3.0 4.0 0.00 0.00 0.00 41 1015.1
20260508220854 71 140 0.0 0.0 0.00 0.00 0.00 43 1015.2
20260508220350 72 129 1.0 2.0 0.00 0.00 0.00 41 1014.9
20260508215847 72 135 0.0 1.0 0.00 0.00 0.00 41 1015.0
20260508215344 72 114 1.0 1.0 0.00 0.00 0.00 41 1015.0
20260508214840 72 114 0.0 0.0 0.00 0.00 0.00 41 1014.8
20260508214338 72 158 1.0 1.0 0.00 0.00 0.00 39 1014.8
20260508213834 73 141 2.0 3.0 0.00 0.00 0.00 38 1014.9
20260508213332 74 139 1.0 1.0 0.00 0.00 0.00 40 1015.0
20260508212827 75 150 0.0 0.0 0.00 0.00 0.00 38 1014.7
20260508212323 74 140 1.0 1.0 0.00 0.00 0.00 38 1014.7
20260508211819 73 125 1.0 1.0 0.00 0.00 0.00 41 1014.6
20260508211315 74 128 6.0 7.0 0.00 0.00 0.00 37 1014.8
20260508210813 74 147 3.0 2.0 0.00 0.00 0.00 37 1014.7
20260508210310 74 133 0.0 0.0 0.00 0.00 0.00 38 1015.0
20260508205806 76 150 2.0 2.0 0.00 0.00 0.00 35 1015.0
20260508205306 76 166 1.0 1.0 0.00 0.00 0.00 36 1014.9
20260508204759 75 162 0.0 0.0 0.00 0.00 0.00 38 1015.1
20260508204256 75 162 1.0 1.0 0.00 0.00 0.00 36 1015.4
20260508203752 76 157 4.0 4.0 0.00 0.00 0.00 34 1015.1
20260508203248 76 160 0.0 1.0 0.00 0.00 0.00 34 1015.1
20260508202744 77 153 0.0 0.0 0.00 0.00 0.00 37 1015.3
20260508202242 76 145 0.0 1.0 0.00 0.00 0.00 36 1015.0
20260508201739 76 147 1.0 1.0 0.00 0.00 0.00 35 1015.0
20260508201235 76 124 0.0 0.0 0.00 0.00 0.00 35 1015.1
20260508200732 77 21 1.0 1.0 0.00 0.00 0.00 32 1015.2
20260508200228 77 121 0.0 0.0 0.00 0.00 0.00 35 1015.3
20260508195724 75 349 0.0 1.0 0.00 0.00 0.00 34 1015.2
20260508195221 74 203 1.0 1.0 0.00 0.00 0.00 35 1015.3
20260508194718 74 181 2.0 2.0 0.00 0.00 0.00 34 1015.4
20260508194215 75 151 4.0 3.0 0.00 0.00 0.00 33 1015.5
20260508193712 75 151 2.0 2.0 0.00 0.00 0.00 34 1015.5
20260508193208 77 197 1.0 1.0 0.00 0.00 0.00 33 1015.4
20260508192705 76 125 1.0 1.0 0.00 0.00 0.00 32 1015.8
20260508192202 77 119 0.0 0.0 0.00 0.00 0.00 38 1015.8
20260508191659 76 132 0.0 1.0 0.00 0.00 0.00 36 1015.9
20260508191155 76 99 2.0 3.0 0.00 0.00 0.00 34 1016.1
20260508190653 77 119 4.0 4.0 0.00 0.00 0.00 31 1016.4
20260508190149 76 43 2.0 2.0 0.00 0.00 0.00 33 1016.1
20260508185646 77 39 2.0 3.0 0.00 0.00 0.00 33 1016.0
20260508185143 76 15 4.0 4.0 0.00 0.00 0.00 32 1016.2
20260508184641 76 44 0.0 1.0 0.00 0.00 0.00 33 1016.4
20260508184138 75 1 1.0 2.0 0.00 0.00 0.00 33 1016.2
20260508183635 76 122 1.0 1.0 0.00 0.00 0.00 35 1016.5
20260508183130 76 97 0.0 0.0 0.00 0.00 0.00 36 1016.9
20260508182627 77 161 2.0 3.0 0.00 0.00 0.00 34 1016.8
20260508182124 77 132 3.0 3.0 0.00 0.00 0.00 33 1016.6
20260508181619 75 164 0.0 0.0 0.00 0.00 0.00 37 1016.9
20260508181117 74 156 2.0 3.0 0.00 0.00 0.00 35 1016.8
20260508180613 73 289 1.0 1.0 0.00 0.00 0.00 35 1017.1
20260508180110 73 245 1.0 1.0 0.00 0.00 0.00 36 1016.8
20260508175606 75 217 2.0 2.0 0.00 0.00 0.00 36 1016.9
20260508175104 74 189 0.0 0.0 0.00 0.00 0.00 42 1017.0
20260508174601 74 137 1.0 1.0 0.00 0.00 0.00 37 1017.0
20260508174058 75 119 1.0 1.0 0.00 0.00 0.00 38 1017.0
20260508173555 74 286 1.0 1.0 0.00 0.00 0.00 38 1017.2
20260508173051 73 153 3.0 4.0 0.00 0.00 0.00 35 1017.0
20260508172548 75 158 3.0 4.0 0.00 0.00 0.00 35 1017.3
20260508172044 74 187 1.0 1.0 0.00 0.00 0.00 37 1017.4
20260508171541 73 145 2.0 1.0 0.00 0.00 0.00 39 1017.2
20260508171038 73 177 4.0 7.0 0.00 0.00 0.00 37 1017.4
20260508170535 71 143 0.0 0.0 0.00 0.00 0.00 43 1017.4
20260508170032 72 138 2.0 3.0 0.00 0.00 0.00 38 1017.3
20260508165529 71 46 1.0 2.0 0.00 0.00 0.00 41 1017.4
20260508165026 71 196 1.0 2.0 0.00 0.00 0.00 40 1017.6
20260508164522 72 147 2.0 3.0 0.00 0.00 0.00 39 1017.9
20260508164019 72 328 2.0 2.0 0.00 0.00 0.00 39 1017.9
20260508163517 71 98 2.0 3.0 0.00 0.00 0.00 40 1017.7
20260508163013 72 136 2.0 2.0 0.00 0.00 0.00 40 1017.9
20260508162510 72 38 2.0 2.0 0.00 0.00 0.00 39 1018.0
20260508162008 72 44 1.0 1.0 0.00 0.00 0.00 39 1018.1
20260508161504 72 194 1.0 1.0 0.00 0.00 0.00 41 1018.1
20260508161001 72 330 1.0 1.0 0.00 0.00 0.00 37 1018.2
20260508160500 72 116 4.0 4.0 0.00 0.00 0.00 37 1018.4
20260508155955 71 315 1.0 1.0 0.00 0.00 0.00 42 1018.5
20260508155453 70 26 0.0 1.0 0.00 0.00 0.00 41 1018.5
20260508154950 70 33 5.0 6.0 0.00 0.00 0.00 39 1018.6
20260508154448 70 143 1.0 1.0 0.00 0.00 0.00 41 1018.5
20260508153944 70 143 1.0 1.0 0.00 0.00 0.00 41 1018.6
20260508153441 70 159 2.0 2.0 0.00 0.00 0.00 40 1018.5
20260508152937 69 137 5.0 6.0 0.00 0.00 0.00 38 1018.4
20260508152434 68 163 3.0 3.0 0.00 0.00 0.00 43 1018.5
20260508151930 68 137 5.0 7.0 0.00 0.00 0.00 40 1018.5
20260508151427 68 152 3.0 3.0 0.00 0.00 0.00 40 1018.5
20260508150924 68 136 2.0 2.0 0.00 0.00 0.00 42 1018.6
20260508150420 68 134 2.0 3.0 0.00 0.00 0.00 43 1018.4
20260508145916 67 141 4.0 6.0 0.00 0.00 0.00 41 1018.5
20260508145413 68 148 1.0 1.0 0.00 0.00 0.00 45 1018.6
20260508144910 67 80 2.0 2.0 0.00 0.00 0.00 45 1018.7
20260508144408 67 12 3.0 3.0 0.00 0.00 0.00 47 1018.5
20260508143905 67 22 1.0 3.0 0.00 0.00 0.00 46 1018.6
20260508143402 66 145 4.0 4.0 0.00 0.00 0.00 47 1018.6
20260508142858 66 32 3.0 4.0 0.00 0.00 0.00 49 1018.4
20260508142355 66 25 1.0 1.0 0.00 0.00 0.00 48 1018.5
20260508141852 67 15 3.0 3.0 0.00 0.00 0.00 46 1018.4
20260508141349 67 19 3.0 3.0 0.00 0.00 0.00 47 1018.5
20260508140847 68 262 3.0 3.0 0.00 0.00 0.00 45 1018.5
20260508140343 68 20 2.0 3.0 0.00 0.00 0.00 47 1018.4
20260508135838 67 121 2.0 2.0 0.00 0.00 0.00 50 1018.6
20260508135335 66 127 3.0 3.0 0.00 0.00 0.00 50 1018.5
20260508134831 66 164 2.0 3.0 0.00 0.00 0.00 50 1018.6
20260508134328 66 122 6.0 8.0 0.00 0.00 0.00 49 1018.5
20260508133825 65 131 7.0 10.0 0.00 0.00 0.00 51 1018.7
20260508133323 64 171 2.0 3.0 0.00 0.00 0.00 56 1018.3
20260508132820 64 0 3.0 3.0 0.00 0.00 0.00 55 1018.4
20260508132318 63 7 1.0 2.0 0.00 0.00 0.00 60 1018.4
20260508131814 63 46 1.0 1.0 0.00 0.00 0.00 60 1018.2
20260508131310 62 170 4.0 6.0 0.00 0.00 0.00 66 1018.1
20260508130806 62 141 4.0 6.0 0.00 0.00 0.00 64 1017.9
20260508130304 62 128 3.0 3.0 0.00 0.00 0.00 66 1017.9
20260508125800 61 90 1.0 2.0 0.00 0.00 0.00 70 1017.7
20260508125256 60 350 2.0 4.0 0.00 0.00 0.00 73 1017.8
20260508124754 60 1 2.0 3.0 0.00 0.00 0.00 73 1017.9
20260508124251 60 153 2.0 3.0 0.00 0.00 0.00 77 1017.9
20260508123749 59 20 2.0 2.0 0.00 0.00 0.00 77 1017.8
20260508123247 59 34 1.0 2.0 0.00 0.00 0.00 78 1017.8
20260508122743 59 16 3.0 4.0 0.00 0.00 0.00 80 1017.7
20260508122240 59 39 1.0 2.0 0.00 0.00 0.00 81 1017.8
20260508121737 58 10 1.0 2.0 0.00 0.00 0.00 82 1017.9
20260508121235 58 21 2.0 2.0 0.00 0.00 0.00 83 1017.6
20260508120732 58 20 1.0 1.0 0.00 0.00 0.00 85 1017.7
20260508120231 58 51 2.0 2.0 0.00 0.00 0.00 86 1017.6
20260508115728 57 30 1.0 1.0 0.00 0.00 0.00 88 1017.5
20260508115225 57 357 1.0 2.0 0.00 0.00 0.00 91 1017.4
20260508114721 56 8 0.0 1.0 0.00 0.00 0.00 93 1017.2
20260508114218 56 14 3.0 3.0 0.00 0.00 0.00 96 1017.3
20260508113715 56 14 2.0 2.0 0.00 0.00 0.00 97 1017.0
20260508113214 55 25 2.0 2.0 0.00 0.00 0.00 97 1016.9
20260508112709 55 18 1.0 1.0 0.00 0.00 0.00 97 1016.8
20260508112206 55 19 1.0 1.0 0.00 0.00 0.00 97 1016.8
20260508111703 55 25 2.0 3.0 0.00 0.00 0.00 97 1016.5
20260508111201 55 22 1.0 1.0 0.00 0.00 0.00 97 1016.6
20260508110658 55 10 2.0 2.0 0.00 0.00 0.00 97 1016.5
20260508110155 54 19 0.0 1.0 0.00 0.00 0.00 97 1016.4
20260508105655 54 19 0.0 0.0 0.00 0.00 0.00 97 1016.5
20260508105152 54 19 0.0 1.0 0.00 0.00 0.00 97 1016.6
20260508104649 54 19 0.0 1.0 0.00 0.00 0.00 97 1016.2
20260508104146 54 19 0.0 0.0 0.00 0.00 0.00 97 1016.2
20260508103643 54 19 0.0 0.0 0.00 0.00 0.00 97 1015.9
20260508103140 54 19 0.0 0.0 0.00 0.00 0.00 97 1015.9
20260508102637 54 19 0.0 0.0 0.00 0.00 0.00 96 1015.8
20260508102135 54 19 0.0 0.0 0.00 0.00 0.00 96 1015.8
20260508101632 55 19 1.0 1.0 0.00 0.00 0.00 96 1015.8
20260508101130 55 19 1.0 1.0 0.00 0.00 0.00 96 1015.4
20260508100627 55 19 0.0 0.0 0.00 0.00 0.00 96 1015.6
20260508100125 55 19 0.0 1.0 0.00 0.00 0.00 96 1015.6
20260508095621 55 19 1.0 1.0 0.00 0.00 0.00 96 1015.5
20260508095118 55 19 0.0 0.0 0.00 0.00 0.00 96 1015.7
20260508094615 55 19 1.0 1.0 0.00 0.00 0.00 96 1015.5
20260508094112 55 19 0.0 0.0 0.00 0.00 0.00 96 1015.3
20260508093609 55 19 0.0 0.0 0.00 0.00 0.00 96 1015.3
20260508093107 55 20 0.0 0.0 0.00 0.00 0.00 96 1015.2
20260508092604 55 20 0.0 0.0 0.00 0.00 0.00 96 1015.2
20260508092102 55 20 0.0 0.0 0.00 0.00 0.00 96 1015.2
20260508091559 55 20 1.0 1.0 0.00 0.00 0.00 95 1015.1
20260508091056 55 20 0.0 0.0 0.00 0.00 0.00 95 1015.2
20260508090554 56 20 0.0 0.0 0.00 0.00 0.00 95 1015.1
20260508090050 56 21 0.0 1.0 0.00 0.00 0.00 95 1015.2
20260508085547 56 18 2.0 2.0 0.00 0.00 0.00 95 1015.1
20260508085044 56 14 0.0 1.0 0.00 0.00 0.00 95 1015.2
20260508084541 56 19 0.0 0.0 0.00 0.00 0.00 95 1015.1
20260508084038 56 20 0.0 0.0 0.00 0.00 0.00 94 1015.4
20260508083536 56 20 0.0 0.0 0.00 0.00 0.00 94 1015.3
20260508083032 56 21 1.0 1.0 0.00 0.00 0.00 94 1015.0
20260508082528 56 21 0.0 0.0 0.00 0.00 0.00 94 1015.2
20260508082026 56 25 0.0 1.0 0.00 0.00 0.00 94 1015.1
20260508081523 56 32 1.0 0.0 0.00 0.00 0.00 94 1015.0
20260508081019 56 37 0.0 0.0 0.00 0.00 0.00 94 1015.2
20260508080517 56 38 0.0 1.0 0.00 0.00 0.00 93 1014.8
20260508080014 56 37 0.0 0.0 0.00 0.00 0.00 93 1014.6
20260508075511 57 46 0.0 0.0 0.00 0.00 0.00 93 1015.0
20260508075008 57 48 0.0 0.0 0.00 0.00 0.00 93 1014.9
20260508074506 57 48 0.0 0.0 0.00 0.00 0.00 93 1014.7
20260508074002 57 48 0.0 0.0 0.00 0.00 0.00 93 1014.6
20260508073500 57 48 0.0 0.0 0.00 0.00 0.00 92 1014.6
20260508072957 57 48 0.0 1.0 0.00 0.00 0.00 93 1014.5
20260508072453 57 48 1.0 1.0 0.00 0.00 0.00 93 1014.5
20260508071950 57 48 0.0 0.0 0.00 0.00 0.00 92 1014.5
20260508071448 57 48 0.0 0.0 0.00 0.00 0.00 92 1014.4
20260508070945 57 48 0.0 0.0 0.00 0.00 0.00 91 1014.3
20260508070443 57 48 0.0 0.0 0.00 0.00 0.00 91 1014.4
20260508065941 57 49 0.0 0.0 0.00 0.00 0.00 90 1014.5
20260508065439 57 49 0.0 0.0 0.00 0.00 0.00 90 1014.4
20260508064937 57 49 0.0 0.0 0.00 0.00 0.00 90 1014.4
20260508064434 58 49 0.0 0.0 0.00 0.00 0.00 89 1014.2
20260508063931 58 52 0.0 0.0 0.00 0.00 0.00 89 1014.3
20260508063429 58 74 0.0 0.0 0.00 0.00 0.00 88 1014.5
20260508062926 58 126 1.0 1.0 0.00 0.00 0.00 87 1014.3
20260508062424 58 163 1.0 1.0 0.00 0.00 0.00 87 1014.4
20260508061921 58 16 0.0 1.0 0.00 0.00 0.00 87 1014.7
20260508061418 58 14 1.0 1.0 0.00 0.00 0.00 87 1014.8
20260508060914 59 20 0.0 0.0 0.00 0.00 0.00 87 1014.9
20260508060412 59 21 1.0 1.0 0.00 0.00 0.00 86 1014.6
20260508055907 59 17 2.0 2.0 0.00 0.00 0.00 86 1014.8
20260508055404 59 23 0.0 0.0 0.00 0.00 0.00 86 1014.6
20260508054901 59 23 0.0 0.0 0.00 0.00 0.00 85 1014.8
20260508054358 59 23 0.0 0.0 0.00 0.00 0.00 85 1014.7
20260508053855 59 12 1.0 1.0 0.00 0.00 0.00 85 1014.6
20260508053352 59 11 1.0 1.0 0.00 0.00 0.00 84 1014.7
20260508052850 59 11 0.0 0.0 0.00 0.00 0.00 84 1014.8
20260508052347 59 30 0.0 0.0 0.00 0.00 0.00 84 1014.7
20260508051843 59 27 0.0 0.0 0.00 0.00 0.00 83 1014.7
20260508051338 59 27 1.0 1.0 0.00 0.00 0.00 83 1014.6
20260508050835 60 12 0.0 0.0 0.00 0.00 0.00 83 1014.6
20260508050333 60 21 1.0 1.0 0.00 0.00 0.00 82 1014.5
20260508045828 60 26 1.0 1.0 0.00 0.00 0.00 82 1014.4
20260508045326 60 17 1.0 1.0 0.00 0.00 0.00 82 1014.5
20260508044823 60 26 1.0 1.0 0.00 0.00 0.00 81 1014.5
20260508044319 60 57 2.0 2.0 0.00 0.00 0.00 82 1014.5
20260508043816 60 339 0.0 0.0 0.00 0.00 0.00 81 1014.4
20260508043313 60 98 1.0 1.0 0.00 0.00 0.00 80 1014.2
20260508042809 60 6 0.0 0.0 0.00 0.00 0.00 80 1014.0
20260508042308 61 26 2.0 2.0 0.00 0.00 0.00 79 1014.2
20260508041804 61 15 1.0 1.0 0.00 0.00 0.00 78 1013.9
20260508041300 61 354 1.0 1.0 0.00 0.00 0.00 77 1014.1
20260508040757 61 38 2.0 2.0 0.00 0.00 0.00 77 1014.0
20260508040255 61 12 2.0 2.0 0.00 0.00 0.00 76 1013.9
20260508035752 61 81 3.0 3.0 0.00 1.48 1.48 76 1014.0
20260508035249 62 356 3.0 4.0 0.00 1.48 1.48 75 1013.9
20260508034745 62 148 4.0 4.0 0.00 1.48 1.48 75 1013.8
20260508034243 62 8 3.0 3.0 0.00 1.48 1.48 75 1014.0
20260508033740 62 138 2.0 2.0 0.00 1.48 1.48 75 1013.9
20260508033238 62 359 3.0 3.0 0.00 1.48 1.48 74 1014.1
20260508032735 63 1 2.0 3.0 0.00 1.48 1.48 74 1013.9
20260508032232 63 33 3.0 6.0 0.00 1.48 1.48 74 1013.6
20260508031729 63 135 4.0 4.0 0.00 1.48 1.48 73 1013.7
20260508031225 64 333 4.0 4.0 0.00 1.48 1.48 73 1013.6
20260508030722 64 0 6.0 9.0 0.00 1.48 1.48 73 1013.5
20260508030219 64 27 4.0 7.0 0.00 1.48 1.48 74 1013.6
20260508025715 65 44 3.0 3.0 0.00 1.48 1.48 75 1013.6
20260508025213 65 32 2.0 3.0 0.00 1.48 1.48 77 1013.5
20260508024708 66 9 4.0 4.0 0.00 1.48 1.48 76 1013.4
20260508024206 66 21 4.0 4.0 0.00 1.48 1.48 76 1013.3
20260508023702 67 23 3.0 4.0 0.00 1.48 1.48 74 1013.3
20260508023200 68 33 4.0 6.0 0.00 1.48 1.48 73 1013.2
20260508022655 69 34 2.0 4.0 0.00 1.48 1.48 72 1012.8
20260508022153 69 48 2.0 3.0 0.00 1.48 1.48 73 1012.6
20260508021649 70 19 4.0 4.0 0.00 1.48 1.48 72 1012.5
20260508021144 71 47 2.0 2.0 0.00 1.48 1.48 70 1012.1
20260508020642 71 270 0.0 0.0 0.00 1.48 1.48 68 1012.1
20260508020140 71 357 1.0 1.0 0.00 1.48 1.48 67 1012.0
20260508015637 71 270 0.0 0.0 0.00 1.48 1.48 67 1011.8
20260508015134 71 225 1.0 1.0 0.00 1.48 1.48 67 1011.7
20260508014630 71 272 2.0 2.0 0.00 1.48 1.48 67 1011.7
20260508014126 71 67 0.0 1.0 0.00 1.48 1.48 68 1011.3
20260508013623 71 154 1.0 1.0 0.00 1.48 1.48 67 1011.1
20260508013120 71 322 1.0 1.0 0.00 1.48 1.48 68 1011.1
20260508012617 71 304 1.0 2.0 0.00 1.48 1.48 68 1011.1
20260508012114 71 165 1.0 1.0 0.00 1.48 1.48 69 1010.6
20260508011613 72 197 1.0 1.0 0.00 1.48 1.48 68 1010.7
20260508011109 72 270 2.0 1.0 0.00 1.48 1.48 68 1010.6
20260508010606 72 197 1.0 1.0 0.00 1.48 1.48 68 1010.2
20260508010105 72 234 1.0 1.0 0.00 1.48 1.48 68 1010.3
20260508005600 72 235 1.0 1.0 0.00 1.48 1.48 67 1010.2
20260508005057 73 251 2.0 3.0 0.00 1.48 1.48 67 1010.0
20260508004553 73 204 3.0 3.0 0.00 1.48 1.48 67 1010.3
20260508004050 73 238 1.0 1.0 0.00 1.48 1.48 66 1009.8
20260508003546 73 228 1.0 1.0 0.00 1.48 1.48 66 1010.0
20260508003044 73 232 2.0 3.0 0.00 1.48 1.48 66 1009.9
20260508002540 74 223 0.0 1.0 0.00 1.48 1.48 66 1009.6
20260508002037 74 247 3.0 4.0 0.00 1.48 1.48 65 1009.7
20260508001533 74 209 2.0 3.0 0.00 1.48 1.48 66 1009.7
20260508001029 74 196 1.0 1.0 0.00 1.48 1.48 67 1009.3